H1 CPF 2 NER 2025 10 17 9 290 01 glonass129 H2 1106402 9129 37868 2025 10 17 0 0 0 2025 10 20 23 45 0 900 1 1 0 0 0 1 H9 10 0 60965 0.00000 0 6166546.300 -9643548.889 -22753895.670 10 0 60965 900.00000 0 7842006.438 -7350346.549 -23096255.558 10 0 60965 1800.00000 0 9691685.787 -5176962.607 -22988339.843 10 0 60965 2700.00000 0 11668307.038 -3176319.870 -22432488.900 10 0 60965 3600.00000 0 13716376.195 -1391919.720 -21439787.015 10 0 60965 4500.00000 0 15774376.107 143754.831 -20029825.394 10 0 60965 5400.00000 0 17777225.980 1410358.478 -18230298.716 10 0 60965 6300.00000 0 19658903.043 2400281.130 -16076444.629 10 0 60965 7200.00000 0 21355116.116 3118701.668 -13610338.588 10 0 60965 8100.00000 0 22805919.164 3583099.043 -10880059.106 10 0 60965 9000.00000 0 23958155.984 3822244.564 -7938740.725 10 0 60965 9900.00000 0 24767634.643 3874720.786 -4843534.047 10 0 60965 10800.00000 0 25200942.125 3787031.901 -1654493.567 10 0 60965 11700.00000 0 25236824.949 3611387.111 1566584.894 10 0 60965 12600.00000 0 24867079.827 3403251.621 4757354.668 10 0 60965 13500.00000 0 24096918.956 3218768.873 7856114.076 10 0 60965 14400.00000 0 22944796.200 3112162.512 10802985.364 10 0 60965 15300.00000 0 21441702.604 3133226.733 13541055.028 10 0 60965 16200.00000 0 19629961.223 3325009.645 16017455.023 10 0 60965 17100.00000 0 17561571.470 3721785.898 18184365.598 10 0 60965 18000.00000 0 15296171.236 4347402.773 19999922.117 10 0 60965 18900.00000 0 12898700.250 5214068.486 21429010.047 10 0 60965 19800.00000 0 10436859.937 6321633.490 22443934.255 10 0 60965 20700.00000 0 7978473.163 7657395.496 23024950.797 10 0 60965 21600.00000 0 5588851.145 9196437.779 23160651.598 10 0 60965 22500.00000 0 3328274.613 10902488.757 22848194.671 10 0 60965 23400.00000 0 1249691.944 12729269.571 22093374.895 10 0 60965 24300.00000 0 -603271.535 14622276.426 20910532.832 10 0 60965 25200.00000 0 -2197911.116 16520926.314 19322301.679 10 0 60965 26100.00000 0 -3513580.737 18360979.314 17359195.171 10 0 60965 27000.00000 0 -4542323.605 20077138.532 15059042.116 10 0 60965 27900.00000 0 -5288968.151 21605720.454 12466276.177 10 0 60965 28800.00000 0 -5770684.107 22887284.525 9631092.590 10 0 60965 29700.00000 0 -6016016.147 23869111.367 6608486.437 10 0 60965 30600.00000 0 -6063434.730 24507424.391 3457190.012 10 0 60965 31500.00000 0 -5959464.645 24769259.463 238529.499 10 0 60965 32400.00000 0 -5756470.334 24633901.519 -2984776.561 10 0 60965 33300.00000 0 -5510192.321 24093825.018 -6149852.709 10 0 60965 34200.00000 0 -5277140.497 23155096.052 -9194910.294 10 0 60965 35100.00000 0 -5111956.653 21837217.077 -12060473.340 10 0 60965 36000.00000 0 -5064860.503 20172419.230 -14690560.549 10 0 60965 36900.00000 0 -5179290.053 18204431.260 -17033798.184 10 0 60965 37800.00000 0 -5489838.864 15986776.803 -19044440.202 10 0 60965 38700.00000 0 -6020579.872 13580672.180 -20683274.150 10 0 60965 39600.00000 0 -6783848.511 11052614.133 -21918393.994 10 0 60965 40500.00000 0 -7779537.793 8471760.045 -22725824.250 10 0 60965 41400.00000 0 -8994935.733 5907211.772 -23089983.207 10 0 60965 42300.00000 0 -10405111.891 3425317.911 -23003976.669 10 0 60965 43200.00000 0 -11973836.214 1087107.946 -22469717.424 10 0 60965 44100.00000 0 -13654990.523 -1054034.561 -21497869.320 10 0 60965 45000.00000 0 -15394412.114 -2954363.292 -20107618.490 10 0 60965 45900.00000 0 -17132090.781 -4581343.409 -18326277.773 10 0 60965 46800.00000 0 -18804625.959 -5914745.232 -16188733.538 10 0 60965 47700.00000 0 -20347840.024 -6947214.486 -13736747.223 10 0 60965 48600.00000 0 -21699437.761 -7684298.532 -11018126.485 10 0 60965 49500.00000 0 -22801600.515 -8143930.912 -8085783.212 10 0 60965 50400.00000 0 -23603406.810 -8355399.139 -4996697.611 10 0 60965 51300.00000 0 -24062978.975 -8357842.071 -1810809.069 10 0 60965 52200.00000 0 -24149267.151 -8198342.476 1410144.457 10 0 60965 53100.00000 0 -23843397.532 -7929696.774 4603816.048 10 0 60965 54000.00000 0 -23139529.978 -7607956.848 7708445.880 10 0 60965 54900.00000 0 -22045190.601 -7289847.630 10664041.423 10 0 60965 55800.00000 0 -20581066.535 -7030168.791 13413520.071 10 0 60965 56700.00000 0 -18780272.127 -6879288.913 15903793.610 10 0 60965 57600.00000 0 -16687117.161 -6880836.355 18086775.216 10 0 60965 58500.00000 0 -14355427.834 -7069682.557 19920291.288 10 0 60965 59400.00000 0 -11846489.053 -7470301.441 21368882.176 10 0 60965 60300.00000 0 -9226691.723 -8095573.082 22404477.901 10 0 60965 61200.00000 0 -6564980.483 -8946081.847 23006936.900 10 0 60965 62100.00000 0 -3930205.305 -10009939.094 23164438.128 10 0 60965 63000.00000 0 -1388484.324 -11263139.380 22873719.018 10 0 60965 63900.00000 0 999314.914 -12670437.412 22140154.190 10 0 60965 64800.00000 0 3179873.069 -14186711.729 20977672.278 10 0 60965 65700.00000 0 5109401.295 -15758760.970 19408510.796 10 0 60965 66600.00000 0 6755226.263 -17327460.423 17462811.741 10 0 60965 67500.00000 0 8096911.831 -18830191.056 15178063.435 10 0 60965 68400.00000 0 9126869.861 -20203441.159 12598397.114 10 0 60965 69300.00000 0 9850433.578 -21385472.487 9773749.763 10 0 60965 70200.00000 0 10285389.166 -22318939.107 6758907.722 10 0 60965 71100.00000 0 10460984.128 -22953348.004 3612448.451 10 0 60965 72000.00000 0 10416453.304 -23247256.214 395600.551 10 0 60965 72900.00000 0 10199124.388 -23170109.621 -2828955.568 10 0 60965 73800.00000 0 9862183.292 -22703643.198 -5998322.138 10 0 60965 74700.00000 0 9462194.875 -21842780.858 -9050628.036 10 0 60965 75600.00000 0 9056485.649 -20595994.398 -11926256.208 10 0 60965 76500.00000 0 8700501.450 -18985104.306 -14569028.438 10 0 60965 77400.00000 0 8445254.480 -17044529.395 -16927322.198 10 0 60965 78300.00000 0 8334970.338 -14820016.139 -18955095.812 10 0 60965 79200.00000 0 8405036.989 -12366901.175 -20612800.352 10 0 60965 80100.00000 0 8680344.334 -9747980.578 -21868159.290 10 0 60965 81000.00000 0 9174085.960 -7031076.338 -22696800.126 10 0 60965 81900.00000 0 9887074.325 -4286403.183 -23082725.618 10 0 60965 82800.00000 0 10807598.346 -1583847.097 -23018615.863 10 0 60965 83700.00000 0 11911828.755 1009729.903 -22505956.243 10 0 60965 84600.00000 0 13164753.158 3433045.883 -21554989.957 10 0 60965 85500.00000 0 14521599.995 5632709.656 -20184497.502 10 0 60966 0.00000 0 15929689.913 7565190.510 -18421409.125 10 0 60966 900.00000 0 17330635.983 9198367.651 -16300258.344 10 0 60966 1800.00000 0 18662797.194 10512594.599 -13862491.106 10 0 60966 2700.00000 0 19863883.756 11501240.527 -11155642.269 10 0 60966 3600.00000 0 20873602.512 12170686.589 -8232398.779 10 0 60966 4500.00000 0 21636232.172 12539781.832 -5149567.864 10 0 60966 5400.00000 0 22103020.705 12638784.552 -1966970.969 10 0 60966 6300.00000 0 22234305.259 12507836.306 1253714.807 10 0 60966 7200.00000 0 22001266.935 12195034.900 4450145.359 10 0 60966 8100.00000 0 21387248.279 11754188.808 7560505.760 10 0 60966 9000.00000 0 20388579.630 11242348.165 10524691.638 10 0 60966 9900.00000 0 19014880.861 10717216.097 13285454.047 10 0 60966 10800.00000 0 17288826.585 10234548.550 15789487.139 10 0 60966 11700.00000 0 15245384.718 9845650.757 17988439.321 10 0 60966 12600.00000 0 12930559.641 9595074.109 19839830.056 10 0 60966 13500.00000 0 10399691.068 9518608.746 21307856.339 10 0 60966 14400.00000 0 7715377.523 9641654.983 22364074.787 10 0 60966 15300.00000 0 4945108.378 9978041.216 22987947.337 10 0 60966 16200.00000 0 2158700.107 10529337.884 23167240.703 10 0 60966 17100.00000 0 -574359.672 11284697.003 22898272.040 10 0 60966 18000.00000 0 -3187552.702 12221225.502 22185995.551 10 0 60966 18900.00000 0 -5619847.857 13304878.829 21043927.287 10 0 60966 19800.00000 0 -7817993.265 14491839.985 19493907.939 10 0 60966 20700.00000 0 -9738488.468 15730328.875 17565706.163 10 0 60966 21600.00000 0 -11349154.798 16962768.668 15296467.804 10 0 60966 22500.00000 0 -12630238.074 18128220.391 12730019.358 10 0 60966 23400.00000 0 -13574996.603 19164984.876 9916037.035 10 0 60966 24300.00000 0 -14189748.627 20013263.197 6909095.772 10 0 60966 25200.00000 0 -14493375.905 20617763.214 3767615.465 10 0 60966 26100.00000 0 -14516303.168 20930141.048 552724.388 10 0 60966 27000.00000 0 -14298995.746 20911172.430 -2672937.900 10 0 60966 27900.00000 0 -13890038.627 20532559.688 -5846453.991 10 0 60966 28800.00000 0 -13343878.688 19778295.149 -8905872.878 10 0 60966 29700.00000 0 -12718326.833 18645520.604 -11791438.873 10 0 60966 30600.00000 0 -12071927.531 17144843.986 -14446779.128 10 0 60966 31500.00000 0 -11461309.355 15300097.942 -16820024.386 10 0 60966 32400.00000 0 -10938631.011 13147549.175 -18864839.165 10 0 60966 33300.00000 0 -10549233.221 10734591.208 -20541339.623 10 0 60966 34200.00000 0 -10329597.733 8117975.639 -21816880.040 10 0 60966 35100.00000 0 -10305701.144 5361656.739 -22666691.934 10 0 60966 36000.00000 0 -10491833.855 2534340.659 -23074363.281 10 0 60966 36900.00000 0 -10889934.091 -293157.083 -23032148.919 10 0 60966 37800.00000 0 -11489464.486 -3050634.470 -22541106.940 10 0 60966 38700.00000 0 -12267835.290 -5671191.978 -21611059.663 10 0 60966 39600.00000 0 -13191354.802 -8093775.406 -20260381.331 10 0 60966 40500.00000 0 -14216665.234 -10265467.164 -18515618.270 10 0 60966 41400.00000 0 -15292601.737 -12143431.793 -16410950.442 10 0 60966 42300.00000 0 -16362394.712 -13696436.561 -13987506.390 10 0 60966 43200.00000 0 -17366121.382 -14905886.286 -11292546.279 10 0 60966 44100.00000 0 -18243302.620 -15766332.189 -8378530.043 10 0 60966 45000.00000 0 -18935535.382 -16285436.758 -5302089.703 10 0 60966 45900.00000 0 -19389050.198 -16483399.322 -2122926.439 10 0 60966 46800.00000 0 -19557086.789 -16391869.414 1097345.932 10 0 60966 47700.00000 0 -19401988.989 -16052396.000 4296388.639 10 0 60966 48600.00000 0 -18896932.198 -15514479.546 7412334.239 10 0 60966 49500.00000 0 -18027212.139 -14833309.839 10384969.180 10 0 60966 50400.00000 0 -16791042.017 -14067284.925 13156880.847 10 0 60966 51300.00000 0 -15199825.453 -13275414.963 15674548.397 10 0 60966 52200.00000 0 -13277894.019 -12514719.027 17889357.980 10 0 60966 53100.00000 0 -11061719.941 -11837722.701 19758524.435 10 0 60966 54000.00000 0 -8598635.712 -11290159.869 21245903.423 10 0 60966 54900.00000 0 -5945112.124 -10908973.547 22322679.848 10 0 60966 55800.00000 0 -3164664.014 -10720698.378 22967920.433 10 0 60966 56700.00000 0 -325467.975 -10740291.913 23168980.539 10 0 60966 57600.00000 0 2502212.082 -10970463.668 22921757.514 10 0 60966 58500.00000 0 5248687.495 -11401530.844 22230785.221 10 0 60966 59400.00000 0 7847487.690 -12011808.207 21109166.828 10 0 60966 60300.00000 0 10237875.611 -12768517.861 19578345.537 10 0 60966 61200.00000 0 12367132.587 -13629183.077 17667715.650 10 0 60966 62100.00000 0 14192518.158 -14543450.142 15414079.163 10 0 60966 63000.00000 0 15682823.101 -15455263.856 12860956.109 10 0 60966 63900.00000 0 16819449.972 -16305306.858 10057759.828 10 0 60966 64800.00000 0 17596974.756 -17033600.970 7058851.423 10 0 60966 65700.00000 0 18023164.639 -17582160.972 3922490.487 10 0 60966 66600.00000 0 18118449.703 -17897587.921 709701.999 10 0 60966 67500.00000 0 17914869.734 -17933490.776 -2516918.443 10 0 60966 68400.00000 0 17454539.922 -17652631.611 -5694436.941 10 0 60966 69300.00000 0 16787700.282 -17028700.870 -8760825.694 10 0 60966 70200.00000 0 15970431.994 -16047644.696 -11656193.345 10 0 60966 71100.00000 0 15062138.582 -14708485.382 -14323975.175 10 0 60966 72000.00000 0 14122900.382 -13023597.903 -16712057.734 10 0 60966 72900.00000 0 13210816.350 -11018429.008 -18773813.980 10 0 60966 73800.00000 0 12379447.802 -8730669.568 -20469027.107 10 0 60966 74700.00000 0 11675474.120 -6208914.553 -21764683.791 10 0 60966 75600.00000 0 11136660.946 -3510867.116 -22635620.772 10 0 60966 76500.00000 0 10790227.556 -701162.714 -23065012.042 10 0 60966 77400.00000 0 10651682.446 2151094.692 -23044687.550 10 0 60966 78300.00000 0 10724175.719 4974980.390 -22575278.074 10 0 60966 79200.00000 0 10998394.349 7700469.312 -21666184.628 10 0 60966 80100.00000 0 11453003.033 10261115.163 -20335374.419 10 0 60966 81000.00000 0 12055610.019 12596576.725 -18609008.904 10 0 60966 81900.00000 0 12764215.050 14654886.873 -16520912.730 10 0 60966 82800.00000 0 13529076.356 16394371.100 -14111895.419 10 0 60966 83700.00000 0 14294916.222 17785137.680 -11428940.388 10 0 60966 84600.00000 0 15003370.818 18810079.876 -8524278.201 10 0 60966 85500.00000 0 15595580.232 19465351.270 -5454363.072 10 0 60967 0.00000 0 16014809.222 19760297.457 -2278773.379 10 0 60967 900.00000 0 16208988.796 19716850.068 940943.875 10 0 60967 1800.00000 0 16133071.761 19368410.833 4142457.979 10 0 60967 2700.00000 0 15751104.927 18758275.204 7263851.957 10 0 60967 3600.00000 0 15037931.465 17937662.569 10244805.933 10 0 60967 4500.00000 0 13980453.255 16963436.654 13027746.312 10 0 60967 5400.00000 0 12578401.167 15895611.602 15558939.728 10 0 60967 6300.00000 0 10844581.355 14794747.538 17789512.297 10 0 60967 7200.00000 0 8804587.130 13719343.507 19676376.201 10 0 60967 8100.00000 0 6495987.530 12723335.345 21183047.461 10 0 60967 9000.00000 0 3967024.802 11853801.538 22280340.648 10 0 60967 9900.00000 0 1274872.815 11148971.501 22946928.321 10 0 60967 10800.00000 0 -1516473.935 10636618.432 23169755.147 10 0 60967 11700.00000 0 -4338596.113 10332903.348 22944298.896 10 0 60967 12600.00000 0 -7121233.682 10241718.753 22274672.836 10 0 60967 13500.00000 0 -9794954.031 10354560.167 21173566.489 10 0 60967 14400.00000 0 -12293795.742 10650932.309 19662024.292 10 0 60967 15300.00000 0 -14557779.845 11099274.787 17769064.410 10 0 60967 16200.00000 0 -16535185.120 11658370.578 15531142.783 10 0 60967 17100.00000 0 -18184492.818 12279180.166 12991470.410 10 0 60967 18000.00000 0 -19475919.040 12907025.976 10199194.963 10 0 60967 18900.00000 0 -20392469.539 13484036.190 7208460.775 10 0 60967 19800.00000 0 -20930471.200 13951745.318 4077364.175 10 0 60967 20700.00000 0 -21099556.214 14253741.175 866823.918 10 0 60967 21600.00000 0 -20922098.124 14338245.065 -2360611.186 10 0 60967 22500.00000 0 -20432122.435 14160513.918 -5541993.463 10 0 60967 23400.00000 0 -19673737.227 13684960.073 -8615220.888 10 0 60967 24300.00000 0 -18699150.285 12886896.051 -11520268.838 10 0 60967 25200.00000 0 -17566357.381 11753827.541 -14200382.930 10 0 60967 26100.00000 0 -16336600.913 10286237.199 -16603207.477 10 0 60967 27000.00000 0 -15071708.195 8497823.941 -18681825.558 10 0 60967 27900.00000 0 -13831423.861 6415185.973 -20395688.748 10 0 60967 28800.00000 0 -12670851.022 4076960.022 -21711417.131 10 0 60967 29700.00000 0 -11638110.723 1532452.642 -22603453.332 10 0 60967 30600.00000 0 -10772319.447 -1160178.631 -23054557.670 10 0 60967 31500.00000 0 -10101970.276 -3936117.356 -23056135.184 10 0 60967 32400.00000 0 -9643785.456 -6726360.898 -22608388.975 10 0 60967 33300.00000 0 -9402087.542 -9460369.550 -21720298.067 10 0 60967 34200.00000 0 -9368713.846 -12068780.839 -20409421.642 10 0 60967 35100.00000 0 -9523475.527 -14486075.557 -18701535.008 10 0 60967 36000.00000 0 -9835139.523 -16653084.673 -16630105.966 10 0 60967 36900.00000 0 -10262889.462 -18519233.501 -14235623.288 10 0 60967 37800.00000 0 -10758201.651 -20044431.102 -11564791.760 10 0 60967 38700.00000 0 -11267055.175 -21200528.192 -8669610.617 10 0 60967 39600.00000 0 -11732381.444 -21972285.227 -5606354.238 10 0 60967 40500.00000 0 -12096649.133 -22357813.041 -2434475.575 10 0 60967 41400.00000 0 -12304475.258 -22368470.454 784546.114 10 0 60967 42300.00000 0 -12305152.668 -22028225.849 3988390.856 10 0 60967 43200.00000 0 -12054988.258 -21372511.714 7115094.316 10 0 60967 44100.00000 0 -11519354.510 -20446621.862 10104232.532 10 0 60967 45000.00000 0 -10674369.195 -19303719.470 12898073.214 10 0 60967 45900.00000 0 -9508133.689 -18002539.656 15442672.766 10 0 60967 46800.00000 0 -8021478.564 -16604882.248 17688899.520 10 0 60967 47700.00000 0 -6228185.315 -15172998.620 19593365.138 10 0 60967 48600.00000 0 -4154674.382 -13766980.254 21119247.938 10 0 60967 49500.00000 0 -1839171.135 -12442256.387 22236993.851 10 0 60967 50400.00000 0 669617.397 -11247303.418 22924882.653 10 0 60967 51300.00000 0 3314262.599 -10221660.177 23169449.362 10 0 60967 52200.00000 0 6030741.008 -9394330.718 22965752.858 10 0 60967 53100.00000 0 8750842.496 -8782640.852 22317486.138 10 0 60967 54000.00000 0 11404762.991 -8391596.261 21236925.033 10 0 60967 54900.00000 0 13923776.764 -8213769.837 19744714.807 10 0 60967 55800.00000 0 16242879.285 -8229724.304 17869496.724 10 0 60967 56700.00000 0 18303292.088 -8408954.091 15647379.518 10 0 60967 57600.00000 0 20054725.774 -8711308.777 13121263.630 10 0 60967 58500.00000 0 21457306.370 -9088839.940 10340029.132 10 0 60967 59400.00000 0 22483083.492 -9487994.926 7357601.264 10 0 60967 60300.00000 0 23117055.522 -9852065.662 4231910.395 10 0 60967 61200.00000 0 23357666.966 -10123788.943 1023766.064 10 0 60967 62100.00000 0 23216755.233 -10247987.307 -2204332.928 10 0 60967 63000.00000 0 22718947.533 -10174136.944 -5389428.435 10 0 60967 63900.00000 0 21900532.292 -9858751.540 -8469347.499 10 0 60967 64800.00000 0 20807852.311 -9267478.247 -11383935.378 10 0 60967 65700.00000 0 19495287.851 -8376814.047 -14076250.946 10 0 60967 66600.00000 0 18022915.796 -7175366.999 -16493698.916 10 0 60967 67500.00000 0 16453945.267 -5664606.491 -18589074.805 10 0 60967 68400.00000 0 14852039.713 -3859068.807 -20321500.552 10 0 60967 69300.00000 0 13278640.328 -1786007.989 -21657231.280 10 0 60967 70200.00000 0 11790405.276 515493.967 -22570316.751 10 0 60967 71100.00000 0 10436873.753 2995920.294 -23043104.496 10 0 60967 72000.00000 0 9258453.800 5597157.050 -23066575.120 10 0 60967 72900.00000 0 8284818.276 8254697.391 -22640504.127 10 0 60967 73800.00000 0 7533775.490 10900119.434 -21773448.235 10 0 60967 74700.00000 0 7010660.239 13463733.270 -20482557.885 10 0 60967 75600.00000 0 6708268.593 15877286.101 -18793221.152 10 0 60967 76500.00000 0 6607336.453 18076612.482 -16738547.547 10 0 60967 77400.00000 0 6677538.913 20004119.493 -14358703.298 10 0 60967 78300.00000 0 6878965.548 21611004.149 -11700112.444 10 0 60967 79200.00000 0 7164006.991 22859112.097 -8814540.449 10 0 60967 80100.00000 0 7479571.239 23722362.033 -5758079.159 10 0 60967 81000.00000 0 7769534.821 24187678.764 -2590053.464 10 0 60967 81900.00000 0 7977324.663 24255398.517 628128.776 10 0 60967 82800.00000 0 8048521.618 23939132.090 3834161.179 10 0 60967 83700.00000 0 7933376.347 23265093.893 6966035.161 10 0 60967 84600.00000 0 7589132.363 22270926.791 9963225.675 10 0 60967 85500.00000 0 6982059.514 21004073.151 12767844.555 10 0 60968 0.00000 0 6089113.542 19519760.913 15325740.356 10 0 60968 900.00000 0 4899152.338 17878687.799 17587526.423 10 0 60968 1800.00000 0 3413659.513 16144501.585 19509515.711 10 0 60968 2700.00000 0 1646943.219 14381177.513 21054550.600 10 0 60968 3600.00000 0 -374197.954 12650402.378 22192709.812 10 0 60968 4500.00000 0 -2611330.107 11009071.629 22901881.418 10 0 60968 5400.00000 0 -5015726.863 9507002.034 23168191.462 10 0 60968 6300.00000 0 -7530146.875 8184953.649 22986280.160 10 0 60968 7200.00000 0 -10090975.216 7073042.442 22359419.960 10 0 60968 8100.00000 0 -12630642.838 6189609.327 21299472.200 10 0 60968 9000.00000 0 -15080226.490 5540592.955 19826681.612 10 0 60968 9900.00000 0 -17372123.384 5119433.301 17969310.659 10 0 60968 10800.00000 0 -19442690.989 4907511.343 15763118.479 10 0 60968 11700.00000 0 -21234742.851 4875107.926 13250692.149 10 0 60968 12600.00000 0 -22699796.202 4982843.125 10480641.033 10 0 60968 13500.00000 0 -23799976.551 5183536.852 7506667.980 10 0 60968 14400.00000 0 -24509497.983 5424413.141 4386534.038 10 0 60968 15300.00000 0 -24815655.047 5649555.211 1180936.207 10 0 60968 16200.00000 0 -24719282.485 5802506.899 -2047679.929 10 0 60968 17100.00000 0 -24234661.435 5828908.997 -5236348.795 10 0 60968 18000.00000 0 -23388874.493 5679056.708 -8322829.332 10 0 60968 18900.00000 0 -22220635.854 5310267.270 -11246839.284 10 0 60968 19800.00000 0 -20778645.611 4688954.521 -13951253.126 10 0 60968 20700.00000 0 -19119538.094 3792319.619 -16383238.005 10 0 60968 21600.00000 0 -17305511.894 2609583.646 -18495303.542 10 0 60968 22500.00000 0 -15401742.990 1142707.735 -20246243.295 10 0 60968 23400.00000 0 -13473691.710 -593431.370 -21601948.209 10 0 60968 24300.00000 0 -11584418.562 -2571418.732 -22536075.505 10 0 60968 25200.00000 0 -9792023.146 -4752216.134 -23030559.755 10 0 60968 26100.00000 0 -8147314.607 -7086575.789 -23075956.527 10 0 60968 27000.00000 0 -6691811.515 -9516892.938 -22671612.712 10 0 60968 27900.00000 0 -5456154.453 -11979418.815 -21825661.352 10 0 60968 28800.00000 0 -4458996.440 -14406740.420 -20554842.495 10 0 60968 29700.00000 0 -3706415.566 -16730422.595 -18884155.092 10 0 60968 30600.00000 0 -3191871.801 -18883701.558 -16846348.306 10 0 60968 31500.00000 0 -2896706.722 -20804117.273 -14481263.660 10 0 60968 32400.00000 0 -2791162.035 -22435975.257 -11835042.240 10 0 60968 33300.00000 0 -2835871.047 -23732535.995 -8959213.559 10 0 60968 34200.00000 0 -2983757.719 -24657842.059 -5909684.793 10 0 60968 35100.00000 0 -3182261.206 -25188108.542 -2745650.719 10 0 60968 36000.00000 0 -3375790.751 -25312620.914 471554.159 10 0 60968 36900.00000 0 -3508306.721 -25034105.078 3679638.958 10 0 60968 37800.00000 0 -3525918.941 -24368556.359 6816552.698 10 0 60968 38700.00000 0 -3379393.340 -23344536.418 9821671.081 10 0 60968 39600.00000 0 -3026462.238 -22001968.862 12636951.886 10 0 60968 40500.00000 0 -2433842.138 -20390484.608 15208038.047 10 0 60968 41400.00000 0 -1578875.215 -18567386.064 17485288.743 10 0 60968 42300.00000 0 -450726.302 -16595314.432 19424720.345 10 0 60968 43200.00000 0 948914.593 -14539716.027 20988840.779 10 0 60968 44100.00000 0 2605654.143 -12466211.401 22147362.850 10 0 60968 45000.00000 0 4492750.561 -10437974.682 22877783.967 10 0 60968 45900.00000 0 6571988.622 -8513230.112 23165821.976 10 0 60968 46800.00000 0 8795040.947 -6742967.925 23005698.905 10 0 60968 47700.00000 0 11105261.855 -5168973.121 22400266.842 10 0 60968 48600.00000 0 13439842.301 -3822248.172 21360972.515 10 0 60968 49500.00000 0 15732239.333 -2721895.012 19907659.711 10 0 60968 50400.00000 0 17914781.595 -1874503.278 18068211.378 10 0 60968 51300.00000 0 19921344.419 -1274071.144 15878036.034 10 0 60968 52200.00000 0 21689984.191 -902463.345 13379406.035 10 0 60968 53100.00000 0 23165422.299 -730388.538 10620658.341 10 0 60968 54000.00000 0 24301274.190 -718856.276 7655271.361 10 0 60968 54900.00000 0 25061928.801 -821053.210 4540834.434 10 0 60968 55800.00000 0 25423997.504 -984559.810 1337929.323 10 0 60968 56700.00000 0 25377269.398 -1153813.684 -1891054.525 10 0 60968 57600.00000 0 24925130.409 -1272714.247 -5083147.177 10 0 60968 58500.00000 0 24084426.491 -1287256.714 -8176042.561 10 0 60968 59400.00000 0 22884775.118 -1148081.448 -11109333.911 10 0 60968 60300.00000 0 21367353.185 -812827.923 -13825714.105 10 0 60968 61200.00000 0 19583212.303 -248190.671 -16272115.283 10 0 60968 62100.00000 0 17591192.997 568412.628 -18400763.431 10 0 60968 63000.00000 0 15455526.790 1647633.895 -20170125.678 10 0 60968 63900.00000 0 13243228.594 2987501.211 -21545730.455 10 0 60968 64800.00000 0 11021390.619 4573269.701 -22500843.790 10 0 60968 65700.00000 0 8854492.887 6377823.675 -23016988.342 10 0 60968 66600.00000 0 6801844.261 8362613.093 -23084295.350 10 0 60968 67500.00000 0 4915261.689 10479084.473 -22701683.443 10 0 60968 68400.00000 0 3237084.526 12670545.369 -21876861.961 10 0 60968 69300.00000 0 1798606.043 14874383.162 -20626160.116 10 0 60968 70200.00000 0 618985.866 17024544.255 -18974186.891 10 0 60968 71100.00000 0 -295313.650 19054169.112 -16953329.845 10 0 60968 72000.00000 0 -950546.502 20898272.398 -14603104.152 10 0 60968 72900.00000 0 -1365160.104 22496356.182 -11969365.931 10 0 60968 73800.00000 0 -1568755.569 23794847.403 -9103406.393 10 0 60968 74700.00000 0 -1600578.002 24749258.717 -6060945.413 10 0 60968 75600.00000 0 -1507602.914 25325983.829 -2901044.784 10 0 60968 76500.00000 0 -1342301.323 25503654.063 315037.384 10 0 60968 77400.00000 0 -1160178.980 25274001.419 3525028.827 10 0 60968 78300.00000 0 -1017193.957 24642194.039 6666839.297 10 0 60968 79200.00000 0 -967161.268 23626631.849 9679748.307 10 0 60968 80100.00000 0 -1059253.217 22258212.295 12505562.512 10 0 60968 81000.00000 0 -1335699.629 20579097.687 15089721.746 10 0 60968 81900.00000 0 -1829783.605 18641035.734 17382334.003 10 0 60968 82800.00000 0 -2564215.971 16503302.783 19339121.092 10 0 60968 83700.00000 0 -3549956.023 14230354.229 20922258.475 10 0 60968 84600.00000 0 -4785527.938 11889278.110 22101094.715 10 0 60968 85500.00000 0 -6256862.113 9547155.670 22852737.893 99